Regional Weather Roundup
Issued by NWS

Home | Current Version | Previous Version | Text Only | Print | Product List | Glossary Off
Versions: 1 2 3 4 5 6 7 8 9 10 11 12 13 14 15 16 17 18 19 20 21 22 23 24 25 26 27 28 29 30 31 32 33 34 35 36 37 38 39 40 41 42 43 44 45 46 47 48 49 50

322
ASUS44 KJAN 261203
RWRMS

MISSISSIPPI HOURLY WEATHER ROUNDUP
NATIONAL WEATHER SERVICE JACKSON MS
600 AM CST THU FEB 26 2015

NOTE: "FAIR: INDICATES FEW OR NO CLOUDS BELOW 12,000 FEET WITH NO
SIGNIFICANT WEATHER AND/OR OBSTRUCTIONS TO VISIBILITY.

MSZ001>002-007>008-010>013-018>021-025>028-034>036-261300-
NORTHWEST MISSISSIPPI

CITY           SKY/WX    TMP DP  RH WIND       PRES   REMARKS
CLARKSDALE     CLOUDY    27  27 100 CALM      30.02R VSB<1/4
CLEVELAND      CLOUDY    30  30 100 NW8       30.00R WCI  23
GREENWOOD      CLOUDY    31  30  96 N5        29.99R FOG     WCI  26
6HR MIN TEMP:  31; 6HR MAX TEMP:  33;

GREENVILLE     CLOUDY    31  29  92 NW7       30.00R WCI  24
6HR MIN TEMP:  31; 6HR MAX TEMP:  33;

OLIVE BRANCH     N/A     23  23 100 CALM      29.96R VSB 1/4
OXFORD         FOG       27  27 100 NW3       29.97R VSB 1/2
TUNICA         MIX PCPN  27  27 100 W3        30.01R VSB 1/4
$$

MSZ003>006-009-014>017-022>024-029>033-037>039-261300-
NORTHEAST MISSISSIPPI

CITY           SKY/WX    TMP DP  RH WIND       PRES   REMARKS
COLUMBUS AFB   CLOUDY    25  24  96 CALM      29.95R
6HR MIN TEMP:  21; 6HR MAX TEMP:  32; 6HR PCP:  0.07;

CORINTH        FOG       28  27  93 W3        29.94R VSB<1/4
GOLDN TRIANGLE CLOUDY    27  25  93 CALM      29.93R VSB 1/4
STARKVILLE     CLOUDY    32  30  93 CALM      29.96R FOG
TUPELO         FOG       29  27  92 CALM      29.95R VSB 1
6HR MIN TEMP:  26; 6HR MAX TEMP:  32;

$$

MSZ040-058-261300-
CENTRAL MISSISSIPPI

CITY           SKY/WX    TMP DP  RH WIND       PRES   REMARKS
JACKSON INTL   CLOUDY    34  32  92 NW5       29.97R WCI  30
6HR MIN TEMP:  33; 6HR MAX TEMP:  34;

JACKSON HAWKNS CLOUDY    33  30  88 NW3       29.98R
6HR MIN TEMP:  32; 6HR MAX TEMP:  33;

MERIDIAN KEY   CLOUDY    33  31  92 N7        29.94S WCI  27
6HR MIN TEMP:  33; 6HR MAX TEMP:  33;

MERIDIAN NAS   CLOUDY    33  31  92 N3        29.95S
6HR MIN TEMP:  33; 6HR MAX TEMP:  33;

VICKSBURG      CLOUDY    34  31  88 NW3       30.00R
6HR MIN TEMP:  33; 6HR MAX TEMP:  34;

$$

MSZ059>079-261300-
SOUTH MISSISSIPPI

CITY           SKY/WX    TMP DP  RH WIND       PRES   REMARKS
BROOKHAVEN     CLOUDY    32  32 100 CALM      29.96R
HATTIESBURG    CLOUDY    36  34  92 N7        29.95R WCI  30
6HR MIN TEMP:  36; 6HR MAX TEMP:  37;

MCCOMB         CLOUDY    34  31  88 N9        29.95R WCI  27
6HR MIN TEMP:  34; 6HR MAX TEMP:  35;

NATCHEZ        CLOUDY    34  30  86 N6        29.98R WCI  29
6HR MIN TEMP:  34; 6HR MAX TEMP:  34;

PINE BELT      CLOUDY    36  30  80 NW8       29.95R WCI  29
6HR MIN TEMP:  36; 6HR MAX TEMP:  36;

$$

MSZ080>082-261300-
COASTAL MISSISSIPPI

CITY           SKY/WX    TMP DP  RH WIND       PRES   REMARKS
BILOXI         CLOUDY    38  35  88 N15G22    29.91R WCI  29
6HR MIN TEMP:  38; 6HR MAX TEMP:  40;

PASCAGOULA     CLOUDY    37  34  89 N13       29.90R WCI  29
6HR MIN TEMP:  37; 6HR MAX TEMP:  39;

GULFPORT       CLOUDY    38  33  82 N12       29.92R WCI  30
6HR MIN TEMP:  37; 6HR MAX TEMP:  39;

$$



USA.gov is the U.S. government's official web portal to all federal, state and local government web resources and services.